Regional Weather Roundup
Issued by NWS

Home | Current Version | Previous Version | Text Only | Print | Product List | Glossary Off
Versions: 1 2 3 4 5 6 7 8 9 10 11 12 13 14 15 16 17 18 19 20 21 22 23 24 25 26 27 28 29 30 31 32 33 34 35 36 37 38 39 40 41 42 43 44 45 46 47 48 49 50

450
ASUS43 KOAX 190510
RWRNE

WEATHER ROUNDUP FOR NEBRASKA
NATIONAL WEATHER SERVICE OMAHA NE
1100 PM CST SUN FEB 18 2018

NOTES: SATELLITE DATA IS BEING USED TO AUGMENT CLOUD COVER ABOVE
       12000 FEET.
       "FAIR" INDICATES FEW OR NO CLOUDS BELOW 12,000 FEET WITH NO
       SIGNIFICANT WEATHER AND/OR OBSTRUCTIONS TO VISIBILITY.


NEZ001>004-019>022-054>056-190600-
NEBRASKA PANHANDLE

CITY           SKY/WX    TMP DP  RH WIND       PRES   REMARKS
SCOTTSBLUFF    CLOUDY    13   5  70 N18G25    29.77R WCI  -4
ALLIANCE       FLURRIES   9   6  88 N23       29.74R WCI -11
CHADRON        CLOUDY     8   3  80 N22       29.85F WCI -12
GORDON         CLOUDY     9   4  78 N28G33    29.75F WCI -13
KIMBALL        FLURRIES  13  10  87 N22       29.66R WCI  -6
SIDNEY         LGT SNOW  14  10  84 N21G28    29.67R FOG     WCI  -4
$$

NEZ057>060-069>072-079>082-190600-
SOUTHWEST NEBRASKA

CITY           SKY/WX    TMP DP  RH WIND       PRES   REMARKS
NORTH PLATTE   CLOUDY    21  16  81 N23G31    29.69R WCI   5
IMPERIAL       CLOUDY    22  19  89 N28G36    29.64R WCI   4
LEXINGTON      CLOUDY    26  23  87 N28       29.65R WCI  10
MCCOOK         CLOUDY    28  25  88 N23G33    29.61R WCI  14
OGALLALA       FLURRIES  20  14  78 N24G32    29.70R WCI   3
$$

NEZ005>010-023>029-035>040-094-190600-
NORTH CENTRAL NEBRASKA

CITY           SKY/WX    TMP DP  RH WIND       PRES   REMARKS
VALENTINE      LGT SNOW  15   9  76 N29G37    29.77F WCI  -5
AINSWORTH      LGT SNOW  17  14  90 N30G38    29.76R WCI  -3
BROKEN BOW     CLOUDY    22  19  89 N25G38    29.66F WCI   5
O`NEILL        CLOUDY    20  17  90 N22G30    29.76F WCI   3
ORD            CLOUDY    23  20  88 N29G38    29.68S WCI   6
THEDFORD       CLOUDY    17  14  85 N16G24    29.74R WCI   2
$$

NEZ041-046>049-061>064-073>077-083>087-190600-
SOUTH CENTRAL NEBRASKA

CITY           SKY/WX    TMP DP  RH WIND       PRES   REMARKS
GRAND ISLAND   CLOUDY    28  24  85 N23G32    29.65S WCI  14
AURORA         CLOUDY    29  25  84 N25       29.65R WCI  15
HASTINGS       CLOUDY    30  25  81 NE22G35   29.62R WCI  17
HEBRON         CLOUDY    49  44  83 CALM      29.58R
HOLDREGE       CLOUDY    29  27  90 N29G35    29.59F WCI  14
YORK           MOCLDY    32  32 100 N28G35    29.64R WCI  18
$$

NEZ011>018-030>034-042>045-190600-
NORTHEAST NEBRASKA

CITY           SKY/WX    TMP DP  RH WIND       PRES   REMARKS
NORFOLK        CLOUDY    26  23  88 N16G32    29.70R WCI  14
ALBION         CLOUDY    26  23  87 N20G32    29.69R WCI  13
BLAIR          CLOUDY    36  32  85 N13       29.64S WCI  27
COLUMBUS       CLOUDY    28  27  93 N14G25    29.69R WCI  17
FREMONT        CLOUDY    32  28  86 N8G16     29.68R WCI  25
TEKAMAH        CLOUDY    33  30  88 N9        29.68R WCI  25
WAYNE          CLOUDY    28  27  96 N17G23    29.70R WCI  15
$$

NEZ050>053-065>068-078-088>093-190600-
SOUTHEAST NEBRASKA

CITY           SKY/WX    TMP DP  RH WIND       PRES   REMARKS
LINCOLN        CLOUDY    36  31  82 N14       29.64R WCI  27
OMAHA EPPLEY   CLOUDY    38  32  79 N16       29.64R WCI  29
BEATRICE       CLOUDY    45  42  89 NE7       29.60S
FALLS CITY     CLOUDY    53  44  71 S16G24    29.61F
NEBRASKA CITY  CLOUDY    49  42  77 CALM      29.63S
PLATTSMOUTH    CLOUDY    47  41  78 SE5       29.63S
$$

NEZ044-045-051>053-067-190600-
OMAHA AREA

CITY           SKY/WX    TMP DP  RH WIND       PRES   REMARKS
OMAHA EPPLEY   CLOUDY    38  32  79 N16       29.64R WCI  29
BLAIR          CLOUDY    36  32  85 N13       29.64S WCI  27
FREMONT        CLOUDY    32  28  86 N8G16     29.68R WCI  25
MILLARD        CLOUDY    42  36  79 NW9       29.65R
OFFUTT AFB     CLOUDY    45  39  79 SE6       29.63R
PLATTSMOUTH    CLOUDY    47  41  78 SE5       29.63S
WAHOO          CLOUDY    33  29  85 N20G26    29.65R WCI  22
$$




USA.gov is the U.S. government's official web portal to all federal, state and local government web resources and services.